Wind_Speed
0 1 2 2 2 2 2 2 3 4 5 5 5 6 6 6 6 6 6 6 6 6 6 6 6 6 6 6 6 6 7 7 8 9 10 11 11 10 10 10 10 9 9
1 2 2 2 2 2 2 3 4 5 5 6 6 7 7 7 6 7 6 6 6 6 6 7 7 7 7 7 7 7 8 8 9 10 11 11 11 11 11 10 10 9 9
2 2 2 3 3 3 4 4 4 5 5 6 7 7 7 7 7 7 6 6 6 7 7 7 7 7 7 7 7 8 9 9 10 10 10 11 11 11 12 11 10 9 9
3 3 3 3 4 4 5 6 6 6 6 7 8 8 8 8 7 7 7 7 7 7 8 8 7 7 7 7 7 8 10 10 10 9 9 9 10 10 11 12 10 10 10
4 4 4 5 5 5 6 6 7 7 7 7 8 8 8 7 7 7 8 8 7 7 8 7 7 6 7 7 8 8 9 8 8 8 8 7 7 8 9 10 10 10 10
4 4 5 6 6 6 6 6 7 7 7 7 8 8 8 8 8 8 8 8 8 8 8 8 8 7 7 8 8 8 8 7 5 5 6 6 6 6 7 9 9 9 9
4 4 5 5 6 6 7 7 7 8 8 8 8 9 9 9 9 9 9 8 8 8 8 8 8 8 8 8 9 8 8 6 5 5 5 6 6 6 7 9 9 9 10
4 4 4 5 6 7 7 7 8 8 8 7 8 9 9 10 9 8 8 9 8 9 9 9 9 9 9 9 9 9 8 6 6 7 6 6 7 7 8 9 10 10 10
4 5 5 6 7 7 7 7 7 7 7 7 8 9 9 9 8 8 8 9 8 8 9 9 9 9 9 9 9 8 8 7 7 7 7 7 7 8 8 9 9 10 10
4 4 5 6 6 6 7 7 8 7 7 8 8 8 8 8 8 8 8 9 8 9 9 9 9 9 9 9 9 8 8 8 8 8 7 7 7 7 7 8 9 9 9
4 4 5 5 5 6 6 7 7 7 7 7 8 8 8 8 8 9 9 9 9 9 9 9 9 9 9 9 9 9 9 9 9 8 6 6 6 7 8 8 9 8 9
4 4 4 5 6 6 6 7 7 7 7 7 8 8 9 9 9 9 9 9 8 9 9 9 9 9 9 9 8 8 9 8 8 6 6 5 6 7 7 8 8 8 9
4 4 5 5 6 7 7 7 7 7 7 7 8 8 9 9 9 9 9 8 8 8 9 9 9 9 9 8 8 8 8 8 8 7 6 6 7 7 7 7 7 8 8
4 4 4 4 5 6 7 7 7 7 7 8 8 8 8 9 9 9 9 8 8 8 9 9 9 9 9 9 9 8 8 8 8 7 6 6 7 8 7 7 7 8 8
5 4 4 5 6 6 7 7 8 8 8 8 8 8 9 9 9 9 9 9 9 9 9 9 9 9 9 9 9 8 8 7 7 6 6 6 7 7 8 8 9 9 9
5 5 6 6 7 7 8 8 9 9 9 9 9 8 8 9 9 9 9 9 9 9 9 9 9 9 9 9 9 9 8 8 7 7 7 7 7 7 8 8 9 9 9
7 7 7 8 8 8 8 10 10 9 9 9 9 9 9 9 9 9 9 9 9 9 9 9 9 9 9 9 9 9 8 8 8 8 8 8 7 8 8 8 8 9 9
8 8 8 9 9 9 10 10 10 10 9 9 9 8 9 9 9 9 9 9 9 9 9 9 9 9 8 8 8 8 8 9 9 8 8 8 8 9 9 9 9 10 10
8 9 9 10 10 10 11 11 11 10 10 9 9 9 9 9 9 9 10 10 9 9 9 9 9 9 8 8 9 9 9 9 10 9 9 10 10 10 10 10 10 10 10
9 10 10 11 11 11 11 11 11 11 10 10 9 10 10 10 10 10 10 10 10 10 10 10 10 10 9 9 10 10 10 10 11 10 11 11 11 12 11 11 10 10 9
11 11 11 11 11 11 11 11 11 11 11 11 10 11 11 11 11 11 11 11 11 10 11 11 10 10 10 10 10 11 11 11 12 12 12 13 13 13 12 12 11 10 10
11 11 11 11 11 11 11 11 11 12 12 11 11 12 12 12 12 12 12 11 11 11 11 11 10 10 11 11 12 12 12 12 13 13 13 13 13 13 13 12 12 11 11
12 12 12 12 12 12 12 12 12 13 12 12 12 12 12 12 12 12 13 13 12 12 11 12 12 12 12 12 13 13 13 13 13 14 14 14 14 13 13 13 14 13 13
12 12 13 13 13 14 14 14 14 14 13 13 13 13 13 13 13 13 13 14 14 14 13 13 13 14 14 14 15 15 15 15 14 14 14 14 14 14 14 14 13 13 14
13 14 14 14 14 15 15 16 15 15 15 15 15 15 14 14 14 14 14 14 14 14 14 14 15 15 15 15 15 15 16 16 16 16 15 15 15 15 15 14 15 15 15
15 15 16 16 16 16 17 18 17 17 17 17 17 17 16 16 16 16 16 16 16 16 16 16 16 16 16 17 17 17 17 17 17 17 16 16 16 16 16 16 16 16 15
Wind_Direction
99 46 31 14 7 3 347 331 310 305 305 304 299 295 297 302 303 302 300 298 296 297 298 295 299 297 296 292 288 284 285 280 273 272 272 269 267 262 260 256 252 247 252
278 310 315 331 329 325 320 306 298 301 302 299 294 293 294 293 297 298 297 300 294 294 297 298 291 294 297 293 288 287 289 287 277 275 275 271 264 260 256 252 249 250 252
286 298 298 303 314 307 303 306 302 300 300 299 297 292 295 294 295 299 293 296 294 291 291 290 285 287 293 292 292 293 290 287 284 280 280 278 269 263 255 247 247 251 252
284 288 294 301 301 302 302 302 303 305 305 299 299 295 293 295 295 297 293 297 296 294 291 287 289 288 293 298 305 304 298 289 281 280 282 282 276 266 256 247 247 251 253
281 287 292 295 297 299 300 304 303 301 306 305 297 293 290 292 294 294 295 297 299 297 294 291 290 291 298 305 309 312 311 300 279 275 277 282 276 261 251 245 245 251 253
286 288 288 290 291 293 296 298 297 297 301 300 298 292 288 288 291 293 293 294 298 299 300 296 292 296 304 310 309 312 315 310 290 281 278 280 274 260 248 246 248 255 257
293 290 293 294 294 294 295 296 294 295 293 292 293 287 286 285 287 290 289 295 297 300 302 301 301 299 305 309 309 307 306 304 299 287 282 278 271 254 250 250 250 254 259
294 296 297 301 302 299 297 296 294 298 295 291 295 292 287 285 285 288 290 295 295 298 297 300 304 303 306 310 310 308 306 300 294 288 281 276 269 261 256 252 251 257 259
294 299 303 303 302 300 299 297 296 298 297 294 297 295 293 292 293 293 292 294 297 298 299 299 303 304 303 307 308 303 301 297 289 287 283 281 272 260 261 259 259 261 260
296 301 306 303 300 299 298 294 297 298 298 299 298 297 297 295 294 292 292 294 296 297 298 299 302 304 303 305 303 304 306 299 294 292 283 277 266 259 262 264 263 263 264
300 301 305 310 312 311 306 301 299 298 298 299 299 299 299 297 295 293 293 296 295 296 300 302 303 305 301 300 299 303 303 299 298 300 291 277 268 266 267 266 264 265 267
299 303 307 314 316 314 313 310 305 303 301 301 299 299 297 296 295 294 293 295 296 293 297 302 302 303 302 299 298 297 299 300 300 299 293 274 266 265 267 266 265 265 268
298 303 308 317 316 318 315 313 312 308 305 303 303 302 297 295 295 294 293 293 294 295 295 297 300 304 301 301 299 296 294 301 303 297 289 276 270 266 261 260 261 262 264
296 304 304 312 315 320 320 320 315 312 309 307 308 304 301 297 296 293 290 291 295 299 301 299 296 298 300 303 302 297 295 300 300 298 291 284 276 273 273 267 267 267 268
295 301 304 312 312 313 317 319 318 316 315 313 311 312 306 301 299 293 290 293 292 295 297 297 299 299 300 300 302 300 297 295 295 295 297 294 292 286 283 280 277 273 271
289 290 296 302 310 313 315 315 319 319 316 316 310 308 306 306 302 297 297 295 295 297 297 296 296 296 297 297 295 297 298 299 296 295 293 293 289 290 288 285 283 283 283
285 285 290 297 304 310 311 312 314 316 314 316 315 309 303 304 305 301 300 300 302 303 303 301 297 297 297 296 292 292 294 295 296 297 295 289 288 286 286 284 283 283 284
286 287 289 294 297 300 302 305 309 312 315 316 316 312 301 296 297 298 299 301 301 303 306 306 303 301 298 298 294 290 291 294 293 294 291 289 291 291 290 288 288 286 285
285 289 289 291 293 296 300 302 304 306 310 314 310 305 302 297 293 292 294 296 299 301 302 304 305 302 299 296 294 295 293 296 296 294 291 289 290 291 287 286 287 286 284
287 289 290 289 289 292 295 297 298 301 303 305 305 302 302 295 292 290 289 290 292 296 300 302 302 298 295 294 293 294 294 297 296 295 293 291 289 288 286 285 284 284 282
285 288 288 289 290 290 293 293 293 295 295 295 297 299 301 298 295 295 292 290 290 294 297 297 296 293 291 293 293 292 292 292 292 293 293 292 289 284 280 281 282 280 280
282 285 287 286 286 286 289 289 286 287 288 289 289 292 295 296 296 297 293 289 289 291 293 294 293 292 292 293 292 291 291 290 290 290 290 290 288 284 277 275 277 276 277
281 282 284 283 281 279 279 281 281 283 287 286 286 288 290 291 292 295 294 290 289 289 290 291 291 290 291 291 290 290 288 287 287 288 289 288 286 283 281 277 275 272 274
284 282 283 282 279 276 275 277 281 281 284 285 282 284 288 290 291 291 292 292 291 289 287 288 290 289 291 292 291 289 287 285 284 285 284 283 283 282 283 281 277 274 274
284 284 283 282 280 278 278 277 279 279 281 281 282 283 285 288 289 289 289 289 290 290 289 289 290 289 290 291 291 289 286 285 284 283 281 278 279 280 281 281 278 278 281
284 282 281 282 281 279 280 280 281 279 281 281 282 283 283 285 287 287 287 286 286 286 286 287 288 289 290 290 290 290 287 285 284 282 279 277 277 278 279 278 277 277 278
Height
5880 5880 5879 5879 5879 5879 5879 5879 5878 5878 5878 5877 5877 5877 5876 5875 5875 5874 5873 5872 5872 5871 5870 5870 5869 5869 5868 5867 5866 5866 5865 5864 5864 5863 5863 5862 5862 5861 5861 5862 5862 5862 5862
5880 5880 5879 5879 5879 5879 5879 5878 5878 5878 5877 5877 5876 5876 5875 5874 5874 5873 5872 5871 5871 5870 5870 5869 5869 5868 5867 5866 5865 5864 5863 5862 5861 5861 5860 5859 5858 5858 5858 5859 5860 5860 5860
5879 5879 5879 5879 5879 5879 5878 5878 5877 5877 5877 5876 5875 5875 5874 5873 5873 5872 5871 5871 5870 5870 5869 5868 5868 5867 5866 5865 5864 5863 5861 5859 5858 5858 5857 5856 5855 5854 5854 5856 5857 5858 5858
5879 5879 5879 5878 5878 5878 5878 5878 5877 5877 5876 5875 5874 5873 5873 5872 5872 5871 5870 5870 5869 5868 5868 5867 5866 5866 5865 5864 5862 5860 5858 5855 5854 5854 5854 5853 5851 5850 5850 5853 5855 5856 5857
5878 5878 5878 5878 5877 5877 5877 5877 5876 5876 5875 5874 5873 5872 5871 5871 5871 5870 5869 5869 5868 5867 5867 5866 5865 5864 5863 5862 5861 5858 5854 5850 5850 5851 5852 5850 5848 5847 5848 5851 5853 5854 5855
5877 5877 5877 5876 5876 5876 5876 5876 5875 5875 5874 5873 5872 5871 5871 5870 5869 5869 5868 5868 5867 5866 5865 5865 5864 5863 5862 5861 5859 5857 5854 5851 5849 5850 5850 5849 5848 5847 5848 5850 5852 5853 5853
5876 5876 5876 5875 5875 5875 5875 5874 5874 5873 5872 5871 5871 5870 5869 5869 5868 5867 5867 5866 5866 5865 5864 5863 5863 5862 5861 5860 5858 5856 5854 5852 5851 5851 5850 5849 5848 5848 5849 5850 5850 5851 5851
5876 5875 5875 5875 5874 5874 5873 5873 5872 5871 5869 5869 5869 5868 5868 5867 5866 5866 5865 5865 5864 5863 5863 5862 5861 5860 5859 5858 5856 5855 5854 5852 5851 5850 5850 5849 5849 5848 5848 5849 5849 5849 5850
5874 5874 5874 5874 5873 5873 5872 5872 5871 5870 5869 5868 5868 5867 5866 5866 5865 5864 5864 5863 5862 5862 5861 5860 5860 5859 5858 5857 5855 5853 5853 5852 5850 5849 5849 5848 5848 5848 5848 5848 5848 5848 5848
5873 5873 5873 5872 5872 5871 5871 5870 5870 5869 5868 5867 5867 5866 5865 5865 5864 5863 5862 5862 5861 5860 5859 5858 5858 5857 5856 5855 5854 5852 5851 5850 5849 5848 5848 5847 5847 5847 5846 5846 5846 5846 5846
5872 5872 5872 5871 5871 5870 5869 5869 5868 5867 5867 5866 5865 5865 5864 5863 5862 5862 5861 5860 5859 5858 5858 5857 5856 5855 5855 5854 5852 5851 5850 5849 5848 5847 5847 5846 5846 5845 5845 5845 5845 5845 5844
5871 5871 5871 5870 5870 5869 5868 5867 5866 5866 5865 5865 5864 5863 5862 5861 5861 5860 5859 5858 5857 5857 5856 5855 5855 5854 5853 5852 5851 5850 5849 5848 5847 5846 5845 5844 5844 5844 5843 5843 5843 5843 5842
5870 5870 5870 5869 5868 5868 5867 5866 5865 5864 5863 5863 5862 5861 5860 5860 5859 5858 5857 5856 5856 5855 5854 5853 5853 5852 5851 5850 5849 5848 5847 5847 5846 5845 5844 5843 5842 5842 5841 5841 5841 5841 5841
5869 5869 5868 5868 5867 5866 5866 5865 5864 5863 5862 5861 5860 5859 5858 5857 5857 5856 5855 5854 5854 5853 5853 5852 5851 5850 5849 5848 5848 5847 5846 5845 5844 5843 5843 5842 5841 5840 5840 5840 5839 5839 5839
5868 5868 5867 5867 5866 5865 5864 5863 5862 5861 5860 5859 5858 5857 5856 5855 5855 5854 5853 5853 5852 5851 5851 5850 5849 5848 5847 5847 5846 5845 5844 5843 5843 5842 5841 5840 5839 5839 5838 5838 5838 5837 5837
5867 5866 5866 5865 5864 5864 5863 5861 5861 5859 5858 5857 5856 5855 5854 5854 5853 5852 5851 5851 5850 5849 5849 5848 5847 5846 5846 5845 5844 5843 5842 5841 5841 5840 5839 5838 5838 5837 5837 5836 5836 5835 5834
5865 5864 5864 5863 5863 5862 5861 5860 5859 5858 5856 5855 5854 5853 5852 5852 5851 5850 5849 5849 5848 5847 5847 5846 5845 5844 5844 5843 5842 5841 5840 5839 5838 5838 5837 5837 5836 5835 5835 5834 5834 5833 5832
5862 5862 5862 5861 5860 5860 5859 5858 5857 5856 5854 5853 5852 5851 5850 5850 5849 5848 5847 5847 5846 5845 5845 5844 5843 5842 5841 5841 5840 5839 5838 5837 5836 5836 5835 5834 5834 5833 5833 5832 5831 5831 5830
5860 5860 5860 5859 5858 5857 5857 5856 5855 5854 5852 5851 5850 5849 5848 5847 5847 5846 5846 5845 5844 5843 5843 5842 5841 5840 5839 5838 5838 5837 5836 5835 5834 5834 5833 5832 5831 5831 5830 5829 5829 5828 5827
5858 5857 5857 5856 5856 5855 5854 5853 5852 5851 5850 5849 5848 5847 5846 5845 5844 5844 5843 5843 5842 5841 5840 5839 5838 5837 5837 5836 5835 5834 5834 5833 5832 5831 5830 5829 5829 5828 5827 5826 5826 5825 5824
5855 5854 5854 5853 5853 5852 5851 5850 5849 5849 5848 5847 5846 5845 5844 5843 5842 5842 5841 5840 5839 5838 5837 5837 5836 5835 5834 5833 5833 5832 5831 5830 5829 5828 5827 5826 5826 5825 5824 5823 5823 5822 5821
5852 5851 5850 5850 5849 5849 5848 5847 5846 5845 5845 5844 5843 5842 5841 5841 5840 5839 5838 5838 5837 5836 5835 5834 5833 5832 5831 5831 5830 5829 5828 5827 5826 5825 5824 5823 5822 5821 5821 5820 5819 5819 5818
5848 5848 5847 5846 5846 5845 5844 5844 5843 5842 5841 5841 5840 5839 5838 5837 5837 5836 5835 5835 5834 5833 5832 5831 5830 5829 5828 5827 5826 5826 5825 5824 5823 5822 5820 5819 5818 5818 5817 5816 5816 5815 5814
5844 5844 5843 5843 5842 5841 5840 5840 5839 5838 5838 5837 5837 5836 5835 5834 5833 5833 5832 5831 5830 5830 5829 5828 5827 5826 5825 5824 5823 5822 5821 5820 5819 5818 5817 5815 5814 5814 5813 5812 5812 5811 5810
5840 5840 5839 5839 5838 5837 5836 5836 5835 5834 5834 5833 5832 5832 5831 5830 5829 5829 5828 5827 5826 5826 5825 5824 5823 5822 5821 5820 5818 5817 5816 5815 5814 5813 5812 5812 5810 5809 5809 5808 5807 5807 5806
5836 5836 5835 5834 5834 5833 5832 5831 5831 5830 5829 5829 5828 5827 5827 5826 5825 5824 5823 5823 5822 5821 5820 5820 5818 5817 5816 5815 5814 5812 5811 5810 5809 5808 5807 5806 5806 5805 5804 5803 5803 5802 5801